Weather in Paramonovo

Russia / Kurgan Oblast     54°48′30″N   63°32′35″E
temp.,
°C
wind,
m/s
gust,
m/s
humid.,
%
clouds,
%
prec.,
mm/h
press.,
hPa
HPBL,
m
18 may, tue
tue1823:00+21w49383 0.1 1015131
02:00+17nnw225896 0.1 101519
05:00+16n377375 0.1 1016132
08:00+21nw2352100 0.3 1015238
11:00+25w5937100 0.3 10141099
14:00+27nw5835100 0.4 10132243
17:00+28nnw682857 0.4 10113079
20:00+17nne6136967 3.3 1015440
19 may, wed
wed1923:00+16ne6128080 5.6 1017625
02:00+13nne6118029 0.0 1018595
05:00+11nne511871 0.0 1020426
08:00+14ne79630 0.0 1021880
11:00+17ne68427 0.0 10221429
14:00+20ne67353 0.0 10221714
17:00+21ne56348 0.0 10221836
20:00+17ne354913 0.0 102290
20 may, thu
thu2023:00+13ne3459100 0.0 102351
02:00+12ese2259100 0.0 102417
05:00+11e2261100 0.0 102511
08:00+16se01465 0.0 1025257
11:00+20n22355 0.0 10241333
14:00+23wnw112947 0.0 10231643
17:00+23wnw222713 0.0 10221706
20:00+21ssw11369 0.0 102111
21 may, fri
fri2123:00+17s22410 0.0 102212
02:00+15wsw33450 0.0 102221
05:00+14wsw33490 0.0 102222
08:00+20sw22380 0.0 1022237
11:00+24sw33280 0.0 10221603
14:00+26sw33250 0.0 10212115
17:00+26ssw34240 0.0 10212278
20:00+23s33350 0.0 102121
22 may, sat
sat2223:00+19s35430 0.0 102156
02:00+17sw33420 0.0 102131
05:00+16ssw33470 0.0 102227
08:00+21ssw35380 0.0 1022285
11:00+26ssw55272 0.0 10221571
14:00+28sw5624100 0.0 10213064
17:00+25wnw463815 0.0 1021850
20:00+24wsw233979 0.0 102136